110P/Hartley 3 (2014)

Japanese version
Home page
Updated on June 11, 2016

---------------------------------------------------------------------

* Profile

* Pictures

* Orbital Elements

Epoch 2014 Dec. 9.0 TT = JDT 2457000.5
T 2014 Dec. 17.79004 TT                                 MPCW
q   2.4753684            (2000.0)            P               Q
n   0.14362369     Peri.  167.74953     -0.09941246     -0.97613657
a   3.6112038      Node   287.71431     +0.89497772     -0.00291439
e   0.3145310      Incl.   11.69349     +0.43489313     -0.21713800
P   6.86
From 1811 observations 1993 June 23-2015 Jan. 1, mean residual 0".6.
     Nongravitational parameters A1 = +0.00, A2 = -0.0238.

* Finding Charts

* Magnitudes Graph

        m1 =  11.0 + 5 log d +  13.0 log r  [    ,-140]  (             - 2014 July 30)
        m1 = -25.5 + 5 log d + 100   log r  [-140,   0]  (2014 July 30 - 2014 Dec. 17)
        m1 =   0.2 + 5 log d +  35   log r  [   0,    ]  (2014 Dec. 17 -             )

---------------------------------------------------------------------

The orbital elements are published on M.P.E.C. 2015-A10.
The charts are made with StellaNavigator Ver.8 (AstroArts).
The magnitudes graphs are made with Comet for Windows.

---------------------------------------------------------------------

Copyright(C) Seiichi Yoshida (comet@aerith.net). All rights reserved.